This is the latest recevied weather packets stored in our database for station/object YU7IBS-1. If no packets are shown the sender has not sent any weather packets the latest 10 day(s).
| Time | Temp. | Humidity | Pressure | Rain* | Wind** | Luminosity | Snow |
|---|---|---|---|---|---|---|---|
| 1787495056 | 28.89° C | 33% | 1002 hPa | 0 mm | - | - | - |
| 1787494458 | 28.89° C | 34% | 1002.3 hPa | 0 mm | - | - | - |
| 1787493858 | 29.44° C | 33% | 1002.6 hPa | 0 mm | - | - | - |
| 1787493257 | 29.44° C | 32% | 1002.5 hPa | 0 mm | - | - | - |
| 1787492658 | 29.44° C | 32% | 1002.5 hPa | 0 mm | - | - | - |
| 1787492058 | 29.44° C | 31% | 1002.5 hPa | 0 mm | - | - | - |
| 1787491458 | 30° C | 31% | 1002.5 hPa | 0 mm | - | - | - |
| 1787490858 | 29.44° C | 31% | 1002.5 hPa | 0 mm | - | - | - |
| 1787490256 | 29.44° C | 31% | 1002.5 hPa | 0 mm | - | - | - |
| 1787489657 | 30° C | 30% | 1002.5 hPa | 0 mm | - | - | - |
| 1787489058 | 30° C | 30% | 1002.5 hPa | 0 mm | - | - | - |
| 1787488457 | 30° C | 30% | 1002.5 hPa | 0 mm | - | - | - |
| 1787487857 | 30° C | 30% | 1002.6 hPa | 0 mm | - | - | - |
| 1787487258 | 29.44° C | 30% | 1002.9 hPa | 0 mm | - | - | - |
| 1787486658 | 28.89° C | 31% | 1003 hPa | 0 mm | - | - | - |
| 1787486057 | 28.89° C | 30% | 1003 hPa | 0 mm | - | - | - |
| 1787485458 | 28.89° C | 30% | 1003.1 hPa | 0 mm | - | - | - |
| 1787484857 | 28.89° C | 30% | 1003.3 hPa | 0 mm | - | - | - |
| 1787484258 | 28.33° C | 31% | 1003.5 hPa | 0 mm | - | - | - |
| 1787483658 | 28.33° C | 30% | 1003.5 hPa | 0 mm | - | - | - |
| 1787483057 | 28.33° C | 30% | 1003.5 hPa | 0 mm | - | - | - |
| 1787482458 | 28.33° C | 31% | 1003.7 hPa | 0 mm | - | - | - |
| 1787481858 | 27.22° C | 31% | 1003.5 hPa | 0 mm | - | - | - |
| 1787481256 | 27.22° C | 33% | 1003.5 hPa | 0 mm | - | - | - |
| 1787480657 | 27.22° C | 34% | 1003.7 hPa | 0 mm | - | - | - |
* Rain latest hour (hover to see other rain measurements)
** Current wind speed in m/s (hover to see current wind gust speed)